Regional Weather Roundup
Issued by NWS

Home | Current Version | Previous Version | Graphics & Text | Print | Product List | Glossary On
Versions: 1 2 3 4 5 6 7 8 9 10 11 12 13 14 15 16 17 18 19 20 21 22 23 24 25 26 27 28 29 30 31 32 33 34 35 36 37 38 39 40 41 42 43 44 45 46 47 48 49 50
000
ASUS45 KTFX 232010
RWRMT
MONTANA REGIONAL WEATHER ROUNDUP
NATIONAL WEATHER SERVICE GREAT FALLS MT
200 PM MDT WED AUG 23 2017

NOTE: "FAIR" INDICATES FEW OR NO CLOUDS BELOW 12000 FEET WITH NO
SIGNIFICANT WEATHER AND/OR OBSTRUCTIONS TO VISIBILITY.

MTZ001>007-043-232100-
WEST OF THE DIVIDE

CITY           SKY/WX    TMP DP  RH WIND       PRES   REMARKS
KALISPELL      SUNNY     86  42  21 SE13      29.96F
MISSOULA       MOSUNNY   79  37  22 VRB3      30.01F HAZE
BUTTE          CLOUDY    85  30  13 E5        30.13F
MULLAN PASS    PTSUNNY   73  39  29 VRB3      30.19F
ANACONDA         N/A     75  43  31 N6        30.09F
DEER LODGE       N/A     84  30  14 N9        30.09F
EUREKA           N/A     90  39  17 MISG      29.92F
HAMILTON         N/A     79  43  27 NE3       30.03F
LIBBY            N/A     90  39  17 E5        29.92F
PLAINS           N/A     88  43  20 CALM      29.97F
RONAN            N/A     86  42  21 SE1       30.04F
$$

MTZ008-052>055-232100-
SOUTHWEST MONTANA

CITY           SKY/WX    TMP DP  RH WIND       PRES   REMARKS
BOZEMAN        SUNNY     86  23  10 CALM      30.07F
DILLON         CLOUDY    82  35  18 VRB3      30.10F
W YELLOWSTONE  CLOUDY    75  41  29 SW16G26   30.27S
ENNIS          SUNNY     84  32  15 VRB5      30.16F
THREE FORKS      N/A     87  35  15 E3        30.05
TWIN BRIDGES     N/A     82  42  24 CALM      30.08F
$$

MTZ009-010-012-014-046-048-049-054-232100-
EAST SLOPES AND CENTRAL MONTANA

CITY           SKY/WX    TMP DP  RH WIND       PRES   REMARKS
CUT BANK       SUNNY     89  31  12 W10G24    29.96F
GREAT FALLS    SUNNY     90  32  12 W6        29.98F
MALMSTROM AFB  SUNNY     88  32  13 NW12      29.97F
HELENA         SUNNY     88  43  20 VRB3      30.01F
AUGUSTA          N/A     85  31  14 S12       30.01F
BOWMANS CRNR     N/A     86  30  13 SE6       29.99F
CHOTEAU          N/A     90  34  13 VRB6      30.00F
CONRAD           N/A     89  38  16 S8        30.00F
FAIRFIELD        N/A     87  31  13 S6        29.98F
POWER            N/A     87  32  13 SW12      29.98F
RAYNESFORD       N/A     87  31  13 NW13G21   30.01F
ULM              N/A     89  32  13 NW5       29.98F
$$

MTZ011-013-016-021-045-047-050-051-232100-
NORTH CENTRAL MONTANA

CITY           SKY/WX    TMP DP  RH WIND       PRES   REMARKS
HAVRE          SUNNY     88  37  16 VRB3      29.91F
LEWISTOWN      SUNNY     87  34  15 CALM      30.03F
N BAR RANCH      N/A     86  32  14 E7G13     30.06F
CHINOOK          N/A     88  43  20 SE5       29.91F
DENTON           N/A     87  33  14 CALM      29.96F
GEYSER           N/A     88  29  12 W15G23    30.00F
GRASS RANGE      N/A     89  30  12 W13       29.97F
JUDITH GAP       N/A     86  33  15 NE10G20   30.05F
WINIFRED         N/A     85  34  15 NW6       29.99F
$$

MTZ017>020-022>027-061-062-232100-
NORTHEAST MONTANA

CITY           SKY/WX    TMP DP  RH WIND       PRES   REMARKS
GLASGOW        SUNNY     89  38  16 VRB3      29.93F
JORDAN           N/A     93  35  13 VRB3      29.93F
SIDNEY         SUNNY     89  48  24 S3        29.94F
WOLF POINT     SUNNY     92  37  14 VRB5      29.92F
MALTA          SUNNY     91  36  14 E7        29.91F
PLENTYWOOD       N/A     88  41  19 CALM      29.95F
POPLAR           N/A     90  43  19 E6        29.93F
SCOBEY           N/A     89  44  20 SW1       29.94F
$$

MTZ028>42-056>058-232100-
SOUTHCENTRAL AND SOUTHEAST MONTANA

CITY           SKY/WX    TMP DP  RH WIND       PRES   REMARKS
BAKER          SUNNY     88  40  18 VRB3      30.00F
BILLINGS       SUNNY     88  38  17 SW9       29.99F
LIVINGSTON     SUNNY     89  32  13 MISG      30.07F
MILES CITY     SUNNY     91  39  16 VRB3      29.95F
BIG TIMBER     SUNNY     90  28  11 SW13G22   30.06F
EKALAKA          N/A     87  42  20 N1        30.00F
HARLOWTON        N/A     89  28  11 MISG      30.02F
LAUREL           N/A     88  42  19 E5        29.98F
$$

REGIONAL REPORTS...DAKOTAS

CITY           SKY/WX    TMP DP  RH WIND       PRES   REMARKS
WILLISTON      SUNNY     89  46  22 VRB5      29.95F
MINOT          SUNNY     87  47  24 S8        29.94F
DICKINSON      SUNNY     85  47  26 VRB3      29.98F
BEACH            N/A     86  39  19 VRB6      30.02S
CROSBY           N/A     86  43  22 N8G14     29.95F
TIOGA            N/A     84  43  23 CALM      29.98F
WATFORD CITY     N/A     88  43  20 SW6G13    29.95F
BISMARCK       SUNNY     83  53  35 S7        29.99F
GRAND FORKS    CLOUDY    75  50  41 SE9       30.03F
FARGO          SUNNY     77  49  37 E5        30.03F
BUFFALO SD       N/A     86  46  24 VRB3      29.94F
RAPID CITY     SUNNY     87  52  29 VRB3      30.00F
$$

REGIONAL REPORTS...WYOMING/IDAHO/WASHINGTON

CITY           SKY/WX    TMP DP  RH WIND       PRES   REMARKS
GILLETTE       SUNNY     91  34  13 VRB5      30.04F
SHERIDAN       SUNNY     91  34  13 VRB5      30.02F
BUFFALO WY     SUNNY     91  28  10 N8        30.09F
CODY           SUNNY     83  43  24 N14       30.10F
YELLOWSTONE LA   N/A     69  40  34 VRB5      30.35F
IDAHO FALLS    LGT RAIN  69  55  60 S12       30.21F
SALMON         PTSUNNY   76  44  32 S3        30.07F
BOISE          PTSUNNY   89  48  24 NW7       29.99F
SPOKANE        MOSUNNY   81  51  35 S12       29.99F
$$

REGIONAL REPORTS...ALBERTA

CITY           SKY/WX    TMP DP  RH WIND       PRES   REMARKS
EDMONTON       PTSUNNY   79  57  47 S9G17     29.88F
CALGARY        MOSUNNY   84  43  23 E9G21     29.90F
LETHBRIDGE     MOSUNNY   90  39  17 VRB12     29.88F
MEDICINE HAT   MOSUNNY   91  41  17 VRB5      29.86F
$$

REGIONAL REPORTS...SASKATCHEWAN

CITY           SKY/WX    TMP DP  RH WIND       PRES   REMARKS
SWIFT CURRENT  SUNNY     84  43  23 E13G21    29.96F
REGINA         MOSUNNY   82  48  30 NE7       29.97F
SASKATOON      MOSUNNY   77  50  38 E13       30.02S
$$



USA.gov is the U.S. government's official web portal to all federal, state and local government web resources and services.